Powrót do katalogu

STARLINK-4001

AktywnyŁącznośćVLEO
NORAD 52628·PAYLOAD·🇺🇸 United States

Wystrzelony May 14, 2022 z Cape Canaveral Space Force Station

Loading…

Następne Przeloty (najbliższe 24 godziny)

TLE

ŚwieżeSource: CelesTrak SupGP

Epoka: Sep 14, 2026, 21:32 UTC

1 52628C 22052AG  26257.89770833 -.00024463  00000+0 -69983-3 0  2576
2 52628  53.1562 142.4879 0001281  93.7628 210.2108 15.35414541    17

Śledź STARLINK-4001 w czasie rzeczywistym z AllMySat

Download on the App Store